DAL1594 SKBO-MPTO

Flight info

Callsign DAL1594
Flight time 1h 11m
Altitude 38000
Route TOBK1S VASIL UL423 PULOX SIGUN ISOK2C
Aircraft B738/M-VGDW/C

Departure

Time 2026-04-30 17:49
Airport El Dorado International Airport (SKBO)

Arrival

Time 2026-04-30 19:00
Airport Tocumen International Airport (MPTO)
Time Latitude Longitude Altitude Speed Heading
2026-04-30 17:39 4.69954 -74.13986 8367 ft 2 kts 217°
2026-04-30 17:41 4.70015 -74.14016 8366 ft 11 kts 326°
2026-04-30 17:42 4.70150 -74.13977 8366 ft 10 kts 343°
2026-04-30 17:42 4.70294 -74.14156 8366 ft 15 kts 307°
2026-04-30 17:43 4.70443 -74.14351 8366 ft 20 kts 307°
2026-04-30 17:44 4.70747 -74.14754 8366 ft 26 kts 307°
2026-04-30 17:44 4.71045 -74.15147 8365 ft 22 kts 307°
2026-04-30 17:46 4.71189 -74.15274 8366 ft 0 kts 351°
2026-04-30 17:47 4.71255 -74.15255 8366 ft 12 kts 36°
2026-04-30 17:48 4.71295 -74.15139 8364 ft 1 kts 129°
2026-04-30 17:48 4.70314 -74.13853 8366 ft 162 kts 127°
2026-04-30 17:49 4.66141 -74.12135 10587 ft 215 kts 225°
2026-04-30 17:50 4.63397 -74.17226 12179 ft 235 kts 240°
2026-04-30 17:51 4.61185 -74.22232 13600 ft 252 kts 256°
2026-04-30 17:52 4.60275 -74.27326 13924 ft 304 kts 259°
2026-04-30 17:53 4.59643 -74.39651 14942 ft 386 kts 267°
2026-04-30 17:54 4.62405 -74.50228 16919 ft 402 kts 294°
2026-04-30 17:55 4.69069 -74.59355 18914 ft 412 kts 310°
2026-04-30 17:56 4.76281 -74.68465 20803 ft 424 kts 309°
2026-04-30 17:57 4.81801 -74.75519 22044 ft 432 kts 309°
2026-04-30 17:58 4.87417 -74.82711 23268 ft 441 kts 309°
2026-04-30 17:59 4.95038 -74.92466 24670 ft 446 kts 308°
2026-04-30 18:00 5.02707 -75.02285 25987 ft 451 kts 308°
2026-04-30 18:00 5.08509 -75.09718 27008 ft 453 kts 307°
2026-04-30 18:01 5.12395 -75.14697 27655 ft 454 kts 307°
2026-04-30 18:02 5.18388 -75.22104 28696 ft 457 kts 309°
2026-04-30 18:02 5.24762 -75.29205 29549 ft 460 kts 310°
2026-04-30 18:03 5.31209 -75.36439 30216 ft 465 kts 310°
2026-04-30 18:04 5.37658 -75.43737 30861 ft 465 kts 309°
2026-04-30 18:05 5.46170 -75.53372 32063 ft 459 kts 309°
2026-04-30 18:06 5.54551 -75.62864 33379 ft 452 kts 308°
2026-04-30 18:07 5.62813 -75.72224 34635 ft 444 kts 308°
2026-04-30 18:08 5.68893 -75.79116 35665 ft 434 kts 308°
2026-04-30 18:09 5.76718 -75.88291 36694 ft 428 kts 306°
2026-04-30 18:10 5.84252 -75.97403 37689 ft 423 kts 306°
2026-04-30 18:11 5.91756 -76.06434 37877 ft 422 kts 306°
2026-04-30 18:11 5.97396 -76.13213 37887 ft 421 kts 306°
2026-04-30 18:13 6.06809 -76.24541 37884 ft 423 kts 307°
2026-04-30 18:14 6.16204 -76.35851 37869 ft 422 kts 306°
2026-04-30 18:15 6.27478 -76.49431 37837 ft 421 kts 306°
2026-04-30 18:16 6.34951 -76.58440 37830 ft 419 kts 306°
2026-04-30 18:17 6.38696 -76.62956 37828 ft 420 kts 306°
2026-04-30 18:18 6.44302 -76.69719 37823 ft 420 kts 306°
2026-04-30 18:18 6.48045 -76.74236 37817 ft 421 kts 306°
2026-04-30 18:19 6.51772 -76.78734 37816 ft 422 kts 306°
2026-04-30 18:19 6.55529 -76.83270 37812 ft 422 kts 306°
2026-04-30 18:20 6.59294 -76.87816 37810 ft 423 kts 306°
2026-04-30 18:20 6.63062 -76.92367 37813 ft 423 kts 306°
2026-04-30 18:21 6.66812 -76.96898 37807 ft 424 kts 306°
2026-04-30 18:21 6.70584 -77.01456 37812 ft 424 kts 306°
2026-04-30 18:22 6.74361 -77.06023 37810 ft 424 kts 306°
2026-04-30 18:22 6.80026 -77.12873 37808 ft 424 kts 306°
2026-04-30 18:23 6.83794 -77.17431 37806 ft 423 kts 306°
2026-04-30 18:23 6.87559 -77.21986 37816 ft 423 kts 306°
2026-04-30 18:24 6.93192 -77.28804 37810 ft 422 kts 306°
2026-04-30 18:25 6.96916 -77.33313 37814 ft 420 kts 306°
2026-04-30 18:25 7.02515 -77.40096 37816 ft 420 kts 306°
2026-04-30 18:26 7.08111 -77.46877 37821 ft 418 kts 306°
2026-04-30 18:27 7.13666 -77.53611 37815 ft 418 kts 306°
2026-04-30 18:28 7.19241 -77.60373 37820 ft 417 kts 306°
2026-04-30 18:28 7.24806 -77.67125 37827 ft 418 kts 306°
2026-04-30 18:29 7.32217 -77.76123 37832 ft 419 kts 306°
2026-04-30 18:30 7.39690 -77.85185 37828 ft 421 kts 307°
2026-04-30 18:31 7.45478 -77.91892 37836 ft 423 kts 308°
2026-04-30 18:32 7.51300 -77.98609 37835 ft 425 kts 307°
2026-04-30 18:33 7.57115 -78.05350 37822 ft 427 kts 307°
2026-04-30 18:33 7.62949 -78.12122 37829 ft 426 kts 307°
2026-04-30 18:34 7.68773 -78.18885 37834 ft 425 kts 307°
2026-04-30 18:35 7.72644 -78.23383 37832 ft 425 kts 307°
2026-04-30 18:35 7.76524 -78.27893 37816 ft 425 kts 307°
2026-04-30 18:36 7.82307 -78.34616 37819 ft 424 kts 307°
2026-04-30 18:36 7.86208 -78.39155 36844 ft 428 kts 307°
2026-04-30 18:37 7.88161 -78.41426 36305 ft 427 kts 307°
2026-04-30 18:37 7.90110 -78.43692 35742 ft 427 kts 307°
2026-04-30 18:37 7.92047 -78.45946 35300 ft 422 kts 307°
2026-04-30 18:37 7.93972 -78.48185 34909 ft 423 kts 307°
2026-04-30 18:38 7.95915 -78.50450 34542 ft 432 kts 307°
2026-04-30 18:38 7.97901 -78.52766 34163 ft 441 kts 307°
2026-04-30 18:38 7.99917 -78.55116 33779 ft 443 kts 307°
2026-04-30 18:38 8.01931 -78.57460 33348 ft 442 kts 307°
2026-04-30 18:39 8.03924 -78.59780 32926 ft 443 kts 307°
2026-04-30 18:39 8.05967 -78.62158 32496 ft 443 kts 307°
2026-04-30 18:39 8.07958 -78.64477 32096 ft 443 kts 307°
2026-04-30 18:39 8.09983 -78.66837 31687 ft 444 kts 307°
2026-04-30 18:40 8.12011 -78.69201 31286 ft 446 kts 307°
2026-04-30 18:40 8.14053 -78.71584 30890 ft 452 kts 307°
2026-04-30 18:40 8.16128 -78.74005 30519 ft 458 kts 307°
2026-04-30 18:40 8.18221 -78.76446 30134 ft 461 kts 307°
2026-04-30 18:41 8.20320 -78.78894 29729 ft 462 kts 307°
2026-04-30 18:41 8.21710 -78.80514 29433 ft 463 kts 307°
2026-04-30 18:41 8.24581 -78.83780 28827 ft 465 kts 311°
2026-04-30 18:41 8.26102 -78.85314 28546 ft 467 kts 313°
2026-04-30 18:42 8.28475 -78.87550 28116 ft 468 kts 314°
2026-04-30 18:42 8.33290 -78.91941 27478 ft 459 kts 315°
2026-04-30 18:42 8.36362 -78.94774 26923 ft 441 kts 314°
2026-04-30 18:45 8.55718 -79.13097 22576 ft 365 kts 315°
2026-04-30 18:45 8.57560 -79.14845 22026 ft 362 kts 315°
2026-04-30 18:45 8.59364 -79.16557 21492 ft 359 kts 315°
2026-04-30 18:46 8.61175 -79.18276 20964 ft 356 kts 315°
2026-04-30 18:46 8.62977 -79.19986 20443 ft 354 kts 315°
2026-04-30 18:46 8.64769 -79.21688 19954 ft 352 kts 315°
2026-04-30 18:46 8.66558 -79.23385 19444 ft 352 kts 315°
2026-04-30 18:47 8.68344 -79.25081 18957 ft 352 kts 315°
2026-04-30 18:47 8.70123 -79.26769 18453 ft 350 kts 315°
2026-04-30 18:47 8.71894 -79.28451 17949 ft 348 kts 315°
2026-04-30 18:47 8.73658 -79.30127 17395 ft 346 kts 315°
2026-04-30 18:48 8.75410 -79.31791 16852 ft 344 kts 316°
2026-04-30 18:48 8.77149 -79.33442 16317 ft 342 kts 316°
2026-04-30 18:48 8.79073 -79.34839 15699 ft 343 kts 336°
2026-04-30 18:48 8.81374 -79.35386 15125 ft 340 kts 359°
2026-04-30 18:49 8.83690 -79.35021 14556 ft 337 kts 21°
2026-04-30 18:49 8.85719 -79.33889 14010 ft 333 kts 38°
2026-04-30 18:49 8.87505 -79.32447 13449 ft 331 kts 41°
2026-04-30 18:49 8.89272 -79.30957 12830 ft 330 kts 41°
2026-04-30 18:50 8.91040 -79.29472 12227 ft 330 kts 40°
2026-04-30 18:50 8.92817 -79.28002 11601 ft 329 kts 40°
2026-04-30 18:50 8.94593 -79.26546 11017 ft 327 kts 40°
2026-04-30 18:50 8.96358 -79.25107 10463 ft 325 kts 38°
2026-04-30 18:51 8.98263 -79.23882 10165 ft 319 kts 28°
2026-04-30 18:51 9.00195 -79.22925 10047 ft 307 kts 26°
2026-04-30 18:51 9.02101 -79.22033 9987 ft 294 kts 25°
2026-04-30 18:51 9.03913 -79.21179 9927 ft 280 kts 26°
2026-04-30 18:52 9.05680 -79.20333 9504 ft 280 kts 26°
2026-04-30 18:52 9.07404 -79.19494 9077 ft 277 kts 26°
2026-04-30 18:52 9.09130 -79.18645 8661 ft 274 kts 26°
2026-04-30 18:52 9.10832 -79.17804 8241 ft 271 kts 26°
2026-04-30 18:53 9.12516 -79.16969 7845 ft 269 kts 27°
2026-04-30 18:53 9.14191 -79.16138 7440 ft 267 kts 27°
2026-04-30 18:53 9.15850 -79.15315 7063 ft 264 kts 26°
2026-04-30 18:53 9.17527 -79.14599 6676 ft 261 kts 12°
2026-04-30 18:54 9.19308 -79.14655 6345 ft 255 kts 344°
2026-04-30 18:54 9.20825 -79.15512 5955 ft 249 kts 319°
2026-04-30 18:54 9.21868 -79.16873 5559 ft 243 kts 300°
2026-04-30 18:54 9.22621 -79.18378 5179 ft 237 kts 297°
2026-04-30 18:55 9.23319 -79.19866 4808 ft 232 kts 297°
2026-04-30 18:55 9.23611 -79.22882 4059 ft 214 kts 246°
2026-04-30 18:55 9.22791 -79.24079 3774 ft 202 kts 227°
2026-04-30 18:56 9.20906 -79.26021 3206 ft 183 kts 226°
2026-04-30 18:56 9.20022 -79.26926 2923 ft 178 kts 227°
2026-04-30 18:56 9.19161 -79.27811 2664 ft 171 kts 226°
2026-04-30 18:57 9.17514 -79.29510 2376 ft 170 kts 226°
2026-04-30 18:57 9.16689 -79.30361 2132 ft 168 kts 227°
2026-04-30 18:57 9.15881 -79.31199 1937 ft 167 kts 227°
2026-04-30 18:58 9.14258 -79.32879 1474 ft 164 kts 227°
2026-04-30 18:58 9.13486 -79.33679 1270 ft 159 kts 226°
2026-04-30 18:58 9.12718 -79.34476 1060 ft 158 kts 225°
2026-04-30 18:59 9.11214 -79.36061 629 ft 154 kts 224°
2026-04-30 19:00 9.08697 -79.37880 63 ft 134 kts 211°
2026-04-30 19:00 9.08007 -79.38297 61 ft 91 kts 211°
2026-04-30 19:00 9.07464 -79.38625 58 ft 23 kts 211°
2026-04-30 19:01 9.07348 -79.38579 59 ft 9 kts 118°
2026-04-30 19:01 9.07317 -79.38522 60 ft 10 kts 118°
2026-04-30 19:02 9.07237 -79.38377 58 ft 16 kts 118°
2026-04-30 19:02 9.07083 -79.38398 56 ft 13 kts 210°
2026-04-30 19:03 9.06982 -79.38455 53 ft 12 kts 207°
2026-04-30 19:03 9.06857 -79.38498 48 ft 0 kts 210°